Location: Czekan�w
(50.3488°N, 18.7344°E)
Time: 08:53:19
(UTC+00:00)

Lacrosse 5 - Pass Details

Date: 17 February 2020
Orbit: 715 x 724 km, 57.0° (Epoch: 21 March)

Event Time Altitude Azimuth Distance (km) Brightness Sun altitude
Exits shadow 04:38:35 18° 284° (WNW) 1,744 3.2 -12.6°
Maximum altitude 04:41:48 36° 228° (SW) 1,135 2.6 -12.1°
Drops below altitude 10° 04:46:25 10° 162° (SSE) 2,203 4.7 -11.4°
Sets 04:48:56 0° 154° (SSE) 3,122 5.6 -11.0°
